{"data":{"norad_id":65829,"epoch":"2026-05-25T03:22:34.883328Z","epoch_age_seconds":56712,"freshness":"FRESH","line1":"1 65829U 25221G   26145.14068152  .00018961  00000+0  65043-3 0  9992","line2":"2 65829  53.1571  95.7432 0001291 117.7297 242.3835 15.30212205 37717","mean_motion":15.30212205,"eccentricity":0.0001291,"inclination_deg":53.1571,"raan_deg":95.7432,"arg_perigee_deg":117.7297,"mean_anomaly_deg":242.3835,"bstar":0.00065043,"rev_number":3771,"period_min":94.104595120518,"perigee_km":474.29386468397,"apogee_km":476.06339077905,"semimajor_km":6853.3156277315,"source":"CELESTRAK","updated_at":"2026-05-25T13:38:20.942736Z"}}